This is the latest recevied weather packets stored in our database for station/object N1TKS. If no packets are shown the sender has not sent any weather packets the latest 10 day(s).
| Time | Temp. | Humidity | Pressure | Rain* | Wind** | Luminosity | Snow |
|---|---|---|---|---|---|---|---|
| 1777494724 | 14.44° C | 69% | 1012.9 hPa | 0 mm | - | - | - |
| 1777494413 | 14.44° C | 69% | 1012.9 hPa | 0 mm | - | - | - |
| 1777493824 | 15° C | 70% | 1013.5 hPa | 0 mm | - | - | - |
| 1777493822 | 14.44° C | 70% | 1012.9 hPa | 0 mm | - | - | - |
| 1777493818 | 15° C | 70% | 1013.4 hPa | 0 mm | - | - | - |
| 1777493514 | 15° C | 72% | 1013 hPa | 0 mm | - | - | - |
| 1777493215 | 15° C | 72% | 1013.4 hPa | 0 mm | - | - | - |
| 1777492913 | 15° C | 70% | 1013.5 hPa | 0 mm | - | - | - |
| 1777492614 | 15° C | 70% | 1013.4 hPa | 0 mm | - | - | - |
| 1777492018 | 15° C | 68% | 1013.5 hPa | 0 mm | - | - | - |
| 1777491888 | 15.56° C | 68% | 1014 hPa | 0 mm | - | - | - |
| 1777491713 | 15.56° C | 69% | 1013.6 hPa | 0 mm | - | - | - |
| 1777491414 | 15.56° C | 69% | 1013.7 hPa | 0 mm | - | - | - |
| 1777491114 | 15.56° C | 68% | 1013.6 hPa | 0 mm | - | - | - |
| 1777490814 | 15.56° C | 67% | 1013.7 hPa | 0 mm | - | - | - |
| 1777490214 | 15.56° C | 68% | 1014 hPa | 0 mm | - | - | - |
| 1777489966 | 15.56° C | 64% | 1014.1 hPa | 0 mm | - | - | - |
| 1777489915 | 15.56° C | 68% | 1014.1 hPa | 0 mm | - | - | - |
| 1777489681 | 15.56° C | 68% | 1014 hPa | 0 mm | - | - | - |
| 1777489614 | 15.56° C | 68% | 1014 hPa | 0 mm | - | - | - |
| 1777489315 | 15.56° C | 68% | 1014 hPa | 0 mm | - | - | - |
| 1777489016 | 15.56° C | 67% | 1014 hPa | 0 mm | - | - | - |
| 1777488717 | 15° C | 67% | 1014 hPa | 0 mm | - | - | - |
| 1777488414 | 15.56° C | 65% | 1014.1 hPa | 0 mm | - | - | - |
| 1777488149 | 15.56° C | 64% | 1014.1 hPa | 0 mm | - | - | - |
* Rain latest hour (hover to see other rain measurements)
** Current wind speed in m/s (hover to see current wind gust speed)